EW7598 Weather Reports


time (UTC)temp
C
wind
direction
speed
KPH
gust
KPH
rain 1hr
cm
rain 24hr
cm
rain mn
cm
humidity
%
barometer
mb
20260906111523 20 268 0.0 1.6 0.00 0.18 0.00 14 1012.5
20260906110020 20 339 0.0 9.7 0.00 0.18 0.00 14 1012.2
20260906104520 21 316 0.0 0.0 0.00 0.18 0.00 14 1012.1
20260906103019 21 310 0.0 0.0 0.00 0.18 0.00 14 1012.1
20260906101518 21 309 0.0 0.0 0.00 0.18 0.00 14 1011.8
20260906100015 21 338 0.0 0.0 0.00 0.18 0.00 14 1011.6
20260906094513 21 307 0.0 0.0 0.00 0.18 0.00 14 1011.4
20260906093037 21 261 0.0 4.8 0.00 0.18 0.00 15 1011.3
20260906091512 20 329 0.0 1.6 0.00 0.18 0.00 15 1011.2
20260906090017 20 342 0.0 0.0 0.00 0.18 0.00 15 1011.2
20260906084516 20 37 0.0 0.0 0.00 0.18 0.00 16 1010.9
20260906083014 20 10 0.0 0.0 0.00 0.18 0.00 17 1010.6
20260906081508 19 11 0.0 0.0 0.00 0.18 0.00 19 1010.5
20260906080007 20 11 0.0 0.0 0.00 0.18 0.00 18 1010.6
20260906074521 19 159 0.0 0.0 0.00 0.18 0.00 19 1010.6
20260906073005 19 165 0.0 0.0 0.00 0.18 0.00 21 1010.4
20260906071505 19 165 0.0 0.0 0.00 0.18 0.00 21 1010.4
20260906070005 19 165 0.0 0.0 0.00 0.18 0.00 21 1010.5
20260906064501 19 165 0.0 0.0 0.00 0.18 0.00 22 1010.7
20260906063100 19 165 0.0 0.0 0.00 0.18 0.00 22 1010.7
20260906061606 19 165 0.0 0.0 0.00 0.18 0.00 22 1010.9
20260906060057 19 165 0.0 0.0 0.00 0.18 0.00 23 1010.8
20260906054603 19 165 0.0 0.0 0.00 0.18 0.00 24 1010.8
20260906053107 20 165 0.0 0.0 0.00 0.18 0.00 25 1010.9
20260906051552 20 165 0.0 0.0 0.00 0.18 0.00 25 1011.0
20260906050049 20 165 0.0 0.0 0.00 0.18 0.00 26 1011.2
20260906044547 20 165 0.0 0.0 0.00 0.18 0.00 28 1011.3
20260906043046 20 165 0.0 0.0 0.00 0.18 0.00 28 1011.4
20260906041552 20 165 0.0 0.0 0.00 0.18 0.00 28 1011.4
20260906040042 20 165 0.0 0.0 0.00 0.18 0.00 28 1011.4
20260906034545 20 165 0.0 0.0 0.00 0.18 0.18 29 1011.3
20260906033045 20 165 0.0 0.0 0.00 0.18 0.18 31 1011.3
20260906031542 20 165 0.0 0.0 0.00 0.18 0.18 33 1011.3
20260906030048 20 165 0.0 0.0 0.00 0.18 0.18 34 1011.2
20260906024551 21 165 0.0 0.0 0.00 0.18 0.18 33 1011.3
20260906023040 21 165 0.0 1.6 0.00 0.18 0.18 33 1011.0
20260906021540 21 252 0.0 0.0 0.00 0.18 0.18 35 1010.7
20260906020039 21 252 0.0 0.0 0.00 0.18 0.18 35 1010.5
20260906014546 21 252 0.0 0.0 0.00 0.18 0.18 35 1010.4
20260906013038 21 252 0.0 0.0 0.00 0.18 0.18 39 1010.4
20260906011552 21 252 0.0 0.0 0.00 0.18 0.18 43 1010.4
20260906010059 21 252 0.0 0.0 0.00 0.18 0.18 44 1010.1
20260906004541 21 252 0.0 0.0 0.00 0.18 0.18 48 1010.1
20260906003041 22 252 0.0 0.0 0.00 0.18 0.18 51 1010.0
20260906001556 22 252 0.0 0.0 0.00 0.18 0.18 57 1009.9
20260906000035 22 252 0.0 0.0 0.00 0.18 0.18 59 1009.7
20260905234535 23 252 0.0 0.0 0.00 0.18 0.18 62 1009.4
20260905233034 23 252 0.0 0.0 0.00 0.18 0.18 64 1009.3
20260905231541 23 252 0.0 0.0 0.00 0.18 0.18 60 1009.4
20260905230037 23 252 0.0 0.0 0.00 0.18 0.18 62 1009.2
20260905224542 23 252 0.0 0.0 0.00 0.18 0.18 65 1009.1
20260905223038 24 252 0.0 0.0 0.00 0.18 0.18 68 1009.3
20260905221535 24 252 0.0 0.0 0.00 0.18 0.18 70 1009.3
20260905220030 25 252 0.0 0.0 0.00 0.18 0.18 68 1009.7
20260905214532 25 252 0.0 0.0 0.00 0.18 0.18 63 1009.8
20260905213030 25 252 0.0 0.0 0.00 0.18 0.18 50 1010.2
20260905211539 23 252 0.0 0.0 0.00 0.18 0.18 39 1010.2
20260905210027 23 172 0.0 0.0 0.00 0.18 0.18 37 1009.9
20260905204531 22 172 0.0 0.0 0.00 0.18 0.18 33 1009.8
20260905203038 22 172 0.0 0.0 0.00 0.18 0.18 34 1010.0
20260905201548 22 172 0.0 0.0 0.00 0.18 0.18 39 1009.8
20260905200026 22 172 0.0 0.0 0.18 0.18 0.18 45 1010.0
20260905194525 22 172 0.0 0.0 0.18 0.18 0.18 56 1009.7
20260905193027 23 193 3.2 4.8 0.18 0.18 0.18 63 1009.5
20260905191528 25 211 0.0 1.6 0.18 0.18 0.18 76 1010.3
20260905190023 27 267 3.2 27.4 0.00 0.00 0.00 65 1010.5
20260905184528 30 10 9.7 43.5 0.00 0.00 0.00 57 1010.0
20260905183023 32 260 0.0 1.6 0.00 0.00 0.00 57 1009.0
20260905181520 33 266 0.0 3.2 0.00 0.00 0.00 55 1009.2
20260905180018 33 216 0.0 3.2 0.00 0.00 0.00 56 1009.6
20260905174516 33 257 0.0 11.3 0.00 0.00 0.00 58 1009.8
20260905173013 32 258 0.0 3.2 0.00 0.00 0.00 58 1010.2
20260905171509 32 341 0.0 6.4 0.00 0.00 0.00 63 1010.7
20260905170009 32 264 0.0 4.8 0.00 0.00 0.00 59 1011.0
20260905164511 32 243 0.0 1.6 0.00 0.00 0.00 59 1011.0
20260905163007 32 251 0.0 4.8 0.00 0.00 0.00 59 1011.0
20260905161507 32 345 3.2 11.3 0.00 0.00 0.00 61 1011.3
20260905160005 32 264 0.0 3.2 0.00 0.00 0.00 59 1011.5
20260905154503 32 264 0.0 1.6 0.00 0.00 0.00 60 1011.7
20260905153003 32 301 0.0 6.4 0.00 0.00 0.00 64 1011.8
20260905151558 31 250 0.0 8.0 0.00 0.00 0.00 63 1011.9
20260905150056 30 275 0.0 1.6 0.00 0.00 0.00 67 1012.1
20260905144551 30 281 1.6 4.8 0.00 0.00 0.00 70 1012.3
20260905143049 29 278 0.0 0.0 0.00 0.00 0.00 70 1012.1
20260905141545 28 266 0.0 0.0 0.00 0.00 0.00 71 1012.0
20260905140013 28 239 0.0 0.0 0.00 0.00 0.00 74 1012.0
20260905134509 27 239 0.0 0.0 0.00 0.00 0.00 74 1012.0
20260905133005 26 2 0.0 0.0 0.00 0.00 0.00 75 1012.0
20260905131501 25 2 0.0 0.0 0.00 0.00 0.00 74 1012.2
20260905130057 25 2 0.0 0.0 0.00 0.00 0.00 70 1012.3
20260905124553 24 2 0.0 0.0 0.00 0.00 0.00 64 1012.5
20260905123049 23 6 0.0 0.0 0.00 0.00 0.00 50 1012.4
20260905121550 22 6 0.0 0.0 0.00 0.00 0.00 30 1012.4
20260905120046 21 6 0.0 0.0 0.00 0.00 0.00 23 1012.3
20260905114546 21 6 0.0 0.0 0.00 0.00 0.00 25 1012.0
20260905113043 20 6 0.0 0.0 0.00 0.00 0.00 29 1011.8